Zurück zum Katalog

NOAA 16 DEB

AktivPO
NORAD 41050·DEBRIS·🇺🇸 United States

Gestartet Sep 21, 2000 von Vandenberg Space Force Base

Loading…

Nächste Überflüge (nächste 24 Stunden)

TLE

AktuellSource: Space-Track

Epoche: Sep 14, 2026, 14:36 UTC

1 41050U 00055H   26257.60867123  .00040090  00000-0  30762-2 0  9998
2 41050  98.9253 133.2109 0007123  90.8384 269.3653 15.01640623564593

Verfolge NOAA 16 DEB in Echtzeit mit AllMySat

Download on the App Store